Location: Izdebno
(52.6670°N, 16.2170°E)
Time: 19:32:07
(UTC+01:00)

Transit 2A - Pass Details

Date: 01 February 2023
Orbit: 591 x 964 km, 66.7° (Epoch: 21 March)

Event Time Altitude Azimuth Distance (km) Brightness Sun altitude
Rises 03:48:16 0° 312° (NW) 3,505 - -34.6°
Reaches altitude 10° 03:51:35 10° 293° (WNW) 2,616 - -34.1°
Maximum altitude 03:55:22 17° 255° (WSW) 2,181 - -33.6°
Drops below altitude 10° 03:59:14 10° 217° (SW) 2,685 - -33.0°
Sets 04:02:43 0° 198° (SSW) 3,639 - -32.5°
